Skip Page Navigation
NASA JPL Caltech
NASA Logo - Jet Propulsion Laboratory + View the NASA Portal
+ Near-Earth Object (NEO) Program
Search JPL
JPL Home Earth Solar System Stars & Galaxies Technology
JPL Solar System Dynamics
BODIES ORBITS EPHEMERIDES TOOLS PHYSICAL DATA DISCOVERY FAQ SITE MAP
JPL Small-Body Database Browser
Search: [ help ]  
242648 Fribourg (2005 NQ63)
Classification: Main-belt Asteroid          SPK-ID: 2242648
Ephemeris | Orbit Diagram | Orbital Elements | Physical Parameters | Discovery Circumstances | Close-Approach Data ]

[ show orbit diagram ]
Orbital Elements at Epoch 2457000.5 (2014-Dec-09.0) TDB
Reference: JPL 3 (heliocentric ecliptic J2000)
 Element Value Uncertainty (1-sigma)   Units 
e .227796697273747 1.3336e-07  
a 3.035648927522183 8.7815e-08 AU
q 2.344138127750037 4.1713e-07 AU
i 9.321606752647874 1.1917e-05 deg
node 208.5669929590728 7.418e-05 deg
peri 41.88663423944409 7.8563e-05 deg
M 310.2033013022566 3.1385e-05 deg
tp 2457267.722974587187
(2015-Sep-02.22297459)
0.00017492 JED
period 1931.860411777593
5.29
8.3827e-05
2.295e-07
d
yr
n .1863488675502944 8.086e-09 deg/d
Q 3.727159727294328 1.0782e-07 AU
  Orbit Determination Parameters
   # obs. used (total)      117  
   data-arc span      4976 days (13.62 yr)  
   first obs. used      2000-06-07  
   last obs. used      2014-01-21  
   planetary ephem.      DE431  
   SB-pert. ephem.      SB431-BIG16  
   condition code      0  
   fit RMS      .694  
   data source      ORB  
   producer      Otto Matic  
   solution date      2014-Jun-12 03:20:15  

Additional Information
 Earth MOID = 1.34193 AU 
 T_jup = 3.182 
[ show covariance matrix ]

Ephemeris | Orbit Diagram | Orbital Elements | Physical Parameters | Discovery Circumstances | Close-Approach Data ]

Physical Parameter Table
Parameter Symbol Value Units Sigma Reference Notes
absolute magnitude H 16.2 mag n/a MPO248525  

242648 Fribourg           Discovered 2005 July 13 by P. Kocher at Observatoire Naef.
Fribourg is a young, dynamic and bilingual region opf Switzerland near the capital, Bern.
NOTE: some special characters may not display properly (any characters within {} are an attempt to place the proper accent above a character)
Reference: 20111012/MPCPages.arcLast Updated: 2011-10-13

[ show close-approach data ]
Ephemeris | Orbit Diagram | Orbital Elements | Physical Parameters | Discovery Circumstances | Close-Approach Data ]
ABOUT SSD CREDITS/AWARDS PRIVACY/COPYRIGHT GLOSSARY LINKS
FirstGov 2014-Oct-25 22:52 UT
(server date/time)  
NASA Home Page
Site Manager:   Donald K. Yeomans
Webmaster  Alan B. Chamberlin